Location: General Nathan Twining Observatory
(34.5931°N, 106.8201°W)
Time: 12:29:23
(UTC-06:00)

Cosmos 1937 Rocket - Pass Details

Date: 20 September 2017
Orbit: 746 x 781 km, 74.0° (Epoch: 18 October)

Event Time Altitude Azimuth Distance (km) Brightness Sun altitude
Rises 20:07:35 0° 346° (NNW) 3,269 7.1 -13.4°
Reaches altitude 10° 20:10:01 10° 350° (N) 2,335 6.3 -13.8°
Maximum altitude 20:15:16 61° 71° (ENE) 874 3.5 -14.9°
Enters shadow 20:20:09 12° 151° (SSE) 2,194 5.5 -15.9°
